User: anonymous   Login
Location: Black Skies Observatory
(44.7549°N, 79.7179°W)
Time: 15:29:20
(UTC-04:00)
Language:

Envisat - Orbit

View from above orbital plane
View from above orbital plane
View from above satellite
View from above satellite

Ground track
Ground track

The orbit data is extracted from the following two-line orbital elements,

1 27386U 02009A   21214.46115483  .00000013  00000-0  17912-4 0  9997
2 27386  98.1505 206.1733 0001385  88.1989  84.3379 14.38035647 17685
Epoch (UTC): 02 August 2021 11:04:03
Eccentricity: 0.0001385
inclination: 98.1505°
perigee height: 764 km
apogee height: 766 km
right ascension of ascending node: 206.1733°
argument of perigee: 88.1989°
revolutions per day: 14.38035647
mean anomaly at epoch: 84.3379°
orbit number at epoch: 1768

The dashed part of the orbit path shows where the satellite is in the earth's shadow,  

DLR